[[{"header":{"parameterUnit":"m.s-1","parameterCategory":1,"la1":30.2991,"la2":30.254,"lo1":-89.0895,"lo2":-89.0444,"dy":0.0017,"dx":0.0017,"nx":28,"ny":28,"refTime":"2025-04-15T09:00:00:Z","depth":0,"parameterNumber":2,"parameterNumberName":"U-component_of_WINDS"},"data":[0,0,0,0,0,0,0,0,0,0,0,0,0,0,0,0,0,0,0,0,0,0,0,0,0,0,0,0,0,0,0,0,0,0,0,0,0,0,0,0,0,0,0,0,0,0,0,0,0,0,0,0,0,0,0,0,0,0,-0.6619,-0.6618,0,-0.6526,-0.6525,-0.6524,-0.6418,-0.6416,-0.6415,-0.6413,-0.6319,-0.6318,-0.6317,0,0,0,0,0,0,0,0,0,0,0,0,0,-0.6706,-0.6705,-0.6619,-0.6618,-0.6617,-0.6526,-0.6525,-0.6524,-0.6418,-0.6416,-0.6414,-0.6412,-0.6319,-0.6318,-0.6317,0,0,0,0,0,0,0,0,0,0,0,0,0,-0.6647,-0.6705,-0.6619,-0.6553,-0.6546,-0.6527,-0.6525,-0.6523,-0.6418,-0.6416,-0.6414,-0.6411,-0.632,-0.6318,-0.6317,-0.6355,0,0,-0.6312,-0.6311,0,0,0,0,0,0,0,0,-0.665,-0.6643,-0.6564,-0.6557,-0.655,-0.6481,-0.6521,-0.6467,-0.6419,-0.6467,-0.6413,-0.641,-0.6375,-0.6369,-0.6356,-0.6351,-0.6346,-0.6312,-0.6311,-0.631,-0.631,0,0,0,0,0,0,0,-0.6654,-0.6647,-0.6582,-0.6563,-0.6554,-0.6529,-0.6517,-0.651,-0.6435,-0.6463,-0.6455,-0.6445,-0.637,-0.6358,-0.6353,-0.6345,-0.6312,-0.631,-0.6309,-0.6309,-0.6368,-0.6371,0,0,0,0,0,0,-0.6668,-0.6651,-0.6585,-0.6579,-0.6595,-0.6529,-0.6516,-0.6506,-0.6435,-0.6422,-0.6447,-0.644,-0.6362,-0.6355,-0.635,-0.6391,-0.631,-0.6309,-0.6308,-0.6366,-0.6369,-0.6371,0,0,0,0,0,0,-0.6671,-0.6663,-0.6589,-0.6613,-0.6602,-0.653,-0.6519,-0.6505,-0.6492,-0.6424,-0.641,-0.6448,-0.636,-0.6352,-0.6355,-0.6386,-0.6308,-0.6307,-0.6363,-0.6367,-0.637,-0.6474,0,0,0,0,0,0,-0.6673,-0.6665,-0.6678,-0.6614,-0.6601,-0.6595,-0.652,-0.6505,-0.649,-0.648,-0.6421,-0.6409,-0.6357,-0.6358,-0.6353,-0.6383,-0.6305,-0.636,-0.6365,-0.6369,-0.6467,-0.648,-0.6492,0,0,0,0,0,-0.6677,-0.6711,-0.6679,-0.6672,-0.6616,-0.6597,-0.6589,-0.6529,-0.6493,-0.6506,-0.6462,-0.6411,-0.6384,-0.6359,-0.6353,-0.6382,-0.6357,-0.6363,-0.6369,-0.6462,-0.6478,-0.6492,0,0,0,0,0,0,-0.678,-0.6701,-0.6665,-0.6679,-0.6646,-0.6579,-0.6594,-0.6548,-0.6524,-0.6516,-0.6443,-0.6431,-0.6443,-0.6413,-0.6387,-0.6417,-0.6363,-0.6368,-0.6436,-0.6451,-0.6463,-0.647,-0.6304,0,0,0,0,0,-0.6804,-0.6795,-0.6727,-0.6746,-0.6731,-0.6666,-0.6655,-0.6612,-0.6575,-0.656,-0.6516,-0.6482,-0.6466,-0.6457,-0.6438,-0.6463,-0.6449,-0.648,-0.6493,-0.6503,-0.6508,-0.652,-0.6534,-0.639,-0.639,-0.639,0,0,-0.6854,-0.681,-0.6808,-0.6765,-0.6734,-0.6728,-0.6654,-0.665,-0.6644,-0.6559,-0.6559,-0.6527,-0.6484,-0.6499,-0.6503,-0.6474,-0.6545,-0.651,-0.6519,-0.6518,-0.6528,-0.6541,-0.6554,-0.6394,-0.6393,-0.6392,0,0,-0.6941,-0.6907,-0.6919,-0.689,-0.6844,-0.6801,-0.6805,-0.6746,-0.6721,-0.672,-0.6656,-0.6649,-0.6623,-0.6595,-0.6578,-0.6659,-0.6611,-0.6655,-0.6719,-0.6732,-0.6744,-0.6753,-0.6783,-0.6794,-0.666,-0.666,-0.666,0,-0.7009,-0.6995,-0.6931,-0.6931,-0.6915,-0.6838,-0.6851,-0.6826,-0.6777,-0.6768,-0.6737,-0.6703,-0.6669,-0.6677,-0.6697,-0.6685,-0.6687,-0.6661,-0.6747,-0.6756,-0.6764,-0.6792,-0.6803,-0.6666,-0.6665,-0.6665,-0.6664,0,-0.7082,-0.7074,-0.7089,-0.7044,-0.703,-0.7036,-0.6974,-0.6967,-0.6926,-0.6887,-0.6889,-0.6845,-0.6817,-0.6816,-0.6776,-0.6819,-0.6803,-0.6761,-0.6705,-0.6785,-0.6809,-0.6819,-0.6674,-0.6672,-0.667,-0.6669,0,0,-0.7229,-0.715,-0.7157,-0.7136,-0.7082,-0.7075,-0.7079,-0.7052,-0.7048,-0.7017,-0.7019,-0.7,-0.6961,-0.6942,-0.6898,-0.691,-0.6978,-0.6866,-0.6864,-0.6889,-0.7024,-0.7056,-0.7069,-0.6946,-0.6948,-0.6949,-0.7028,0,-0.7307,-0.7308,-0.7252,-0.7269,-0.7262,-0.7191,-0.7194,-0.7162,-0.7126,-0.7116,-0.7076,-0.7064,-0.7013,-0.7001,-0.7009,-0.6968,-0.7004,-0.6961,-0.6948,-0.6948,-0.6961,-0.7082,-0.7115,-0.7192,-0.7037,-0.7039,-0.704,0,-0.7396,-0.7372,-0.7389,-0.7336,-0.733,-0.7335,-0.7306,-0.7297,-0.7259,-0.7233,-0.7213,-0.7163,-0.7165,-0.7113,-0.7115,-0.7087,-0.7079,-0.7058,-0.7059,-0.7055,-0.6999,-0.7082,-0.7214,-0.7226,-0.7054,-0.7053,-0.7052,0,-0.7503,-0.7474,-0.7481,-0.7466,-0.7403,-0.7408,-0.7383,-0.7343,-0.7331,-0.7307,-0.7298,-0.7275,-0.7262,-0.7246,-0.7192,-0.7159,-0.7201,-0.7144,-0.7179,-0.7181,-0.719,-0.719,-0.7324,-0.7185,-0.7185,-0.7185,-0.7185,0,-0.7595,-0.7609,-0.7528,-0.7533,-0.7546,-0.7482,-0.7498,-0.7465,-0.7431,-0.7429,-0.7366,-0.7365,-0.7294,-0.7286,-0.7244,-0.7253,-0.7247,-0.7226,-0.7215,-0.7232,-0.7235,-0.7225,-0.7218,-0.7188,-0.7187,-0.7187,-0.7186,0,-0.7716,-0.7663,-0.7666,-0.7607,-0.7593,-0.7606,-0.7556,-0.7558,-0.7519,-0.7517,-0.7513,-0.7452,-0.7439,-0.7384,-0.7358,-0.733,-0.7353,-0.7331,-0.7366,-0.7358,-0.7397,-0.7394,-0.7528,-0.7543,-0.7396,-0.7398,-0.7399,0,-0.7778,-0.7787,-0.773,-0.7724,-0.7701,-0.7692,-0.768,-0.7618,-0.7609,-0.7568,-0.7576,-0.7558,-0.754,-0.7524,-0.7478,-0.7458,-0.7435,-0.7484,-0.7432,-0.7449,-0.7436,-0.7437,-0.7438,-0.7495,-0.7497,-0.7498,-0.7499,0,-0.7895,-0.7869,-0.7853,-0.783,-0.7817,-0.7795,-0.777,-0.7769,-0.7701,-0.7693,-0.7679,-0.7666,-0.7641,-0.7624,-0.7598,-0.7572,-0.7525,-0.7517,-0.7524,-0.7541,-0.7561,-0.7551,-0.7396,-0.7513,-0.7512,-0.7511,-0.751,-0.751,-0.7988,-0.7993,-0.7954,-0.794,-0.7915,-0.7893,-0.7893,-0.7855,-0.7842,-0.7817,-0.7781,-0.7773,-0.7738,-0.7697,-0.7675,-0.7668,-0.7642,-0.7652,-0.7655,-0.7658,-0.7667,-0.7563,-0.7663,-0.7663,-0.7662,-0.7662,-0.7662,0,-0.8102,-0.8074,-0.8061,-0.8028,-0.8018,-0.7975,-0.7946,-0.794,-0.7933,-0.7904,-0.7888,-0.7874,-0.7859,-0.7813,-0.7793,-0.7797,-0.7775,-0.7794,-0.7792,-0.7788,-0.7691,-0.7687,-0.7812,-0.7812,-0.7812,-0.7812,-0.7812,-0.7812,-0.8159,-0.8166,-0.8136,-0.8131,-0.8102,-0.8094,-0.8081,-0.8061,-0.8038,-0.8024,-0.8011,-0.7982,-0.7946,-0.7924,-0.7909,-0.7896,-0.7891,-0.7918,-0.7898,-0.7809,-0.7794,-0.778,-0.7776,-0.7917,-0.7917,-0.7994,-0.7995,-0.7996]},{"header":{"parameterUnit":"m.s-1","parameterCategory":1,"la1":30.2991,"la2":30.254,"lo1":-89.0895,"lo2":-89.0444,"dy":0.0017,"dx":0.0017,"nx":28,"ny":28,"refTime":"2025-04-15T09:00:00:Z","depth":0,"parameterNumber":3,"parameterNumberName":"V-component_of_WINDS"},"data":[0,0,0,0,0,0,0,0,0,0,0,0,0,0,0,0,0,0,0,0,0,0,0,0,0,0,0,0,0,0,0,0,0,0,0,0,0,0,0,0,0,0,0,0,0,0,0,0,0,0,0,0,0,0,0,0,0,0,2.8916,2.8916,0,2.8909,2.8909,2.8909,2.8951,2.8952,2.8953,2.8954,2.8942,2.894,2.8939,0,0,0,0,0,0,0,0,0,0,0,0,0,2.8959,2.8958,2.8916,2.8916,2.8916,2.8909,2.8909,2.8909,2.895,2.8952,2.8953,2.8955,2.8942,2.894,2.8939,0,0,0,0,0,0,0,0,0,0,0,0,0,2.8945,2.8958,2.8916,2.8936,2.8937,2.8909,2.8909,2.8909,2.895,2.8952,2.8954,2.8955,2.8943,2.8941,2.8938,2.8889,0,0,2.8932,2.8931,0,0,0,0,0,0,0,0,2.8946,2.8943,2.8933,2.8934,2.8936,2.8933,2.892,2.8902,2.895,2.8945,2.8954,2.8956,2.8937,2.8935,2.893,2.8889,2.8888,2.8932,2.893,2.8929,2.8929,0,0,0,0,0,0,0,2.8947,2.8944,2.8913,2.8932,2.8934,2.8943,2.8943,2.8917,2.8931,2.8946,2.8949,2.8948,2.8938,2.8932,2.893,2.8888,2.8932,2.893,2.8928,2.8928,2.8806,2.8804,0,0,0,0,0,0,2.8946,2.8944,2.8913,2.8913,2.8946,2.8941,2.8941,2.8932,2.8931,2.8933,2.8946,2.8949,2.8935,2.8932,2.893,2.8872,2.8929,2.8927,2.8926,2.8808,2.8806,2.8803,0,0,0,0,0,0,2.8947,2.8943,2.8914,2.893,2.8927,2.8938,2.8928,2.8931,2.8925,2.8932,2.8934,2.8937,2.8936,2.8933,2.8899,2.8872,2.8926,2.8925,2.881,2.8807,2.8804,2.8755,0,0,0,0,0,0,2.8948,2.8943,2.8925,2.8929,2.8926,2.8885,2.8926,2.8929,2.8922,2.8926,2.8924,2.8926,2.8937,2.8902,2.8897,2.887,2.8923,2.8813,2.8809,2.8805,2.8759,2.8751,2.8744,0,0,0,0,0,2.8949,2.891,2.8924,2.892,2.8904,2.8883,2.8881,2.8897,2.8919,2.8901,2.8906,2.8926,2.8876,2.8899,2.8893,2.8865,2.8814,2.881,2.8806,2.8763,2.8753,2.8744,0,0,0,0,0,0,2.8901,2.8911,2.8926,2.8888,2.8885,2.889,2.8867,2.8885,2.8874,2.8878,2.8897,2.8896,2.8859,2.8859,2.8884,2.8817,2.8849,2.8843,2.8818,2.8809,2.8801,2.8801,2.8921,0,0,0,0,0,2.8886,2.887,2.8879,2.8844,2.8842,2.8855,2.8846,2.8859,2.8855,2.8853,2.8856,2.885,2.8833,2.8821,2.8806,2.876,2.876,2.8738,2.873,2.8724,2.8718,2.8693,2.8683,2.8789,2.8789,2.8789,0,0,2.8855,2.8858,2.8846,2.8835,2.8834,2.8814,2.8853,2.8831,2.8817,2.885,2.8818,2.882,2.8814,2.8775,2.8757,2.8773,2.8689,2.8718,2.8713,2.8711,2.8687,2.8677,2.8668,2.8786,2.8787,2.8787,0,0,2.8788,2.879,2.8761,2.8759,2.8758,2.8767,2.876,2.8763,2.8765,2.8735,2.8759,2.8742,2.8712,2.8707,2.8701,2.8633,2.8651,2.8628,2.8586,2.8562,2.8553,2.8546,2.852,2.8511,2.8623,2.8622,2.8622,0,2.8748,2.8722,2.8743,2.872,2.8713,2.8745,2.8714,2.8711,2.8704,2.8698,2.8717,2.8681,2.868,2.8639,2.8622,2.8617,2.8608,2.8627,2.8553,2.8546,2.8539,2.8515,2.8506,2.8619,2.862,2.862,2.862,0,2.8673,2.8655,2.8631,2.8625,2.8616,2.859,2.8605,2.8593,2.8607,2.8614,2.8582,2.8582,2.8567,2.8559,2.8571,2.8519,2.8529,2.8551,2.8583,2.8526,2.8503,2.8494,2.8615,2.8616,2.8617,2.8618,0,0,2.8573,2.8581,2.8572,2.8569,2.857,2.8556,2.853,2.8518,2.8507,2.8501,2.8479,2.8454,2.8474,2.8467,2.8479,2.8458,2.8403,2.8481,2.8482,2.8465,2.8344,2.8326,2.8315,2.8415,2.8414,2.8412,2.8344,0,2.8507,2.8465,2.8483,2.8439,2.8421,2.8451,2.8429,2.8426,2.8432,2.8417,2.8423,2.8405,2.8433,2.8429,2.8409,2.8413,2.8378,2.8419,2.8393,2.8391,2.8391,2.8304,2.8285,2.822,2.8335,2.8334,2.8332,0,2.8423,2.8415,2.837,2.8374,2.8368,2.8347,2.8337,2.8323,2.832,2.8326,2.8319,2.8336,2.831,2.8344,2.8307,2.8334,2.8325,2.8326,2.8323,2.832,2.8357,2.8296,2.82,2.819,2.8319,2.832,2.8321,0,2.8353,2.8331,2.8301,2.8299,2.8303,2.8288,2.8289,2.8289,2.828,2.8271,2.8265,2.8253,2.8245,2.8234,2.8247,2.8271,2.8208,2.8243,2.821,2.8209,2.8193,2.8194,2.8093,2.819,2.8191,2.8191,2.8191,0,2.8275,2.8245,2.827,2.8251,2.8219,2.824,2.8206,2.8211,2.821,2.8191,2.8217,2.8198,2.8218,2.82,2.821,2.8177,2.8174,2.8177,2.8179,2.8173,2.8173,2.8166,2.817,2.8188,2.8189,2.8189,2.819,0,2.819,2.8206,2.8175,2.8183,2.8184,2.8159,2.8165,2.8147,2.8156,2.8132,2.8128,2.814,2.8121,2.8134,2.8115,2.8121,2.8078,2.8088,2.8079,2.8081,2.8046,2.8049,2.7936,2.7921,2.803,2.8029,2.8028,0,2.8139,2.8117,2.8123,2.8114,2.8114,2.8097,2.8089,2.811,2.81,2.8096,2.8078,2.8062,2.805,2.8018,2.8024,2.8009,2.8018,2.7979,2.8015,2.801,2.8015,2.8016,2.8013,2.7971,2.797,2.7969,2.7968,0,2.8045,2.8054,2.8043,2.8034,2.8024,2.8017,2.8012,2.8002,2.8023,2.801,2.7993,2.7984,2.7965,2.7948,2.7936,2.7935,2.7954,2.7957,2.7948,2.7941,2.7936,2.7937,2.8057,2.7959,2.796,2.7961,2.7961,2.7961,2.7975,2.7957,2.7958,2.7944,2.7943,2.7938,2.7922,2.7929,2.7915,2.7903,2.7916,2.7894,2.7891,2.7878,2.7875,2.7857,2.7872,2.786,2.7856,2.7852,2.7847,2.7941,2.7855,2.7855,2.7855,2.7855,2.7856,0,2.7881,2.7884,2.7871,2.7865,2.7853,2.7875,2.7871,2.7859,2.7841,2.7838,2.7826,2.7806,2.779,2.7795,2.7781,2.7765,2.7773,2.776,2.7761,2.776,2.7835,2.7843,2.7754,2.7754,2.7754,2.7754,2.7754,2.7754,2.7831,2.7801,2.7811,2.778,2.7783,2.7764,2.7759,2.7754,2.7752,2.7729,2.7716,2.7721,2.7721,2.7707,2.7693,2.7695,2.7687,2.7671,2.7675,2.7745,2.7755,2.7764,2.7772,2.7669,2.7669,2.7602,2.7601,2.7601]}]]